GEFSNGP_con_prob3kmehi_366.txt.gz
EHI
0 0 0 0 0 0 0 0 0 0 0 0 1 2 4 7 9 11 14 14 11 8 7 6 4 4 5 5 4 3 3 4 6 6 5 5 4 4 4 3 3 3 3 3
0 0 0 0 0 0 0 0 0 0 0 0 2 4 6 8 10 12 13 13 10 8 9 7 5 5 7 6 4 4 3 4 5 6 7 6 5 4 4 3 3 3 3 3
0 0 0 0 0 0 0 0 0 0 0 2 4 6 7 9 10 11 11 11 9 9 9 7 6 6 7 5 4 4 4 4 5 7 8 7 6 5 5 4 4 4 3 3
0 0 0 0 0 0 0 0 0 0 1 4 7 8 8 8 9 9 10 10 9 8 7 7 7 7 6 4 3 4 4 5 7 8 7 7 7 7 6 6 6 5 4 3
0 0 0 0 0 0 0 0 0 0 1 5 8 8 7 7 7 8 9 10 9 7 6 7 8 8 6 4 3 4 5 7 8 8 7 6 6 6 6 6 6 5 4 3
0 0 0 0 0 0 0 0 0 1 2 5 7 7 5 6 7 7 8 10 9 8 8 7 6 7 6 4 3 3 4 5 6 6 5 5 4 4 4 5 4 4 3 3
0 0 0 0 0 0 0 0 1 2 3 5 6 4 5 7 7 7 9 10 10 9 8 5 5 6 5 3 2 2 2 3 3 3 3 3 3 3 3 3 3 3 3 3
0 0 0 0 0 0 0 0 1 2 3 5 4 4 6 9 9 8 10 12 12 10 6 3 4 4 2 1 1 2 2 3 3 2 2 3 3 3 2 2 3 3 3 3
0 0 0 0 0 0 1 1 1 1 1 2 3 5 9 11 10 8 9 10 11 9 4 2 3 3 1 0 1 2 3 4 4 4 4 3 2 3 3 3 3 3 3 3
0 0 0 0 0 1 1 2 1 1 1 2 3 5 8 9 8 8 7 8 9 8 4 2 2 2 0 0 2 3 3 4 5 6 5 4 3 3 4 4 4 3 3 3
0 0 0 0 0 1 1 1 1 2 2 3 4 5 5 6 6 6 6 6 7 7 5 3 3 2 1 1 1 3 3 4 5 6 6 4 4 4 3 3 3 2 2 2
0 0 0 0 0 0 0 0 1 2 2 3 3 3 3 4 4 4 4 4 5 6 4 3 2 2 2 2 2 3 3 4 5 6 5 4 3 3 2 1 1 1 1 1
0 0 0 0 0 0 0 0 0 1 1 1 1 1 1 3 3 3 3 3 4 4 2 1 1 1 1 2 2 3 3 3 4 4 4 3 3 2 1 0 0 0 0 0
0 0 0 0 0 0 0 0 0 0 0 0 0 0 1 2 3 3 3 3 2 2 1 0 0 0 0 1 1 2 2 2 2 2 2 2 1 1 0 0 0 0 0 0
0 0 0 0 0 0 0 0 0 0 1 0 0 0 1 2 2 2 2 1 1 1 0 0 0 0 0 0 0 1 1 0 1 1 1 1 0 0 0 0 0 0 0 0
0 0 0 0 0 0 0 0 0 0 0 0 0 0 0 1 1 1 1 0 0 0 0 0 0 0 0 0 0 0 0 0 0 0 0 0 0 0 0 0 0 0 0 0
0 0 0 0 0 0 0 0 0 0 0 0 0 0 0 0 0 0 0 0 0 0 0 0 0 0 0 0 0 0 0 0 0 0 0 0 0 0 0 0 0 0 0 0
0 0 0 0 0 0 0 0 0 0 0 0 0 0 0 0 0 0 0 0 0 0 0 0 0 0 0 0 0 0 0 0 0 0 0 0 0 0 0 0 0 0 0 0
0 0 0 0 0 0 0 0 0 0 1 0 0 0 0 0 0 0 0 0 0 0 0 0 0 0 0 0 0 0 0 0 0 0 0 0 0 0 0 0 0 0 0 0
0 0 0 0 0 0 0 0 0 0 0 0 0 0 0 0 0 0 0 0 0 0 0 0 0 0 0 0 0 0 0 0 0 0 0 0 0 0 0 0 0 0 0 0
0 1 1 0 0 0 0 0 0 0 0 0 0 0 0 0 0 0 0 0 0 0 0 0 0 0 0 0 0 0 0 0 0 0 0 0 0 0 0 0 0 0 0 0
1 2 2 1 0 0 0 0 0 0 0 0 0 0 0 0 0 0 0 0 0 0 0 0 0 0 0 0 0 0 0 0 0 0 0 0 0 0 0 0 0 0 0 0
2 3 2 1 0 0 0 0 0 0 0 0 0 0 0 0 0 0 0 0 0 0 0 0 0 0 0 0 0 0 0 0 0 0 0 0 0 0 0 0 0 0 0 0
1 2 1 0 0 0 0 0 0 0 0 0 0 0 0 0 0 0 0 0 0 0 0 0 0 0 0 0 0 0 0 0 0 0 0 0 0 0 0 0 0 0 0 0
1 1 0 0 0 0 0 0 0 0 0 0 0 0 0 0 0 0 0 0 0 0 0 0 0 0 0 0 0 0 0 0 0 0 0 0 0 0 0 0 0 0 0 0
1 0 0 0 0 0 0 0 0 0 0 0 0 0 0 0 0 0 0 0 0 0 0 0 0 0 0 0 0 0 0 0 0 0 0 0 0 0 0 0 0 0 0 0
1 0 0 0 0 0 0 0 0 0 0 0 0 0 0 0 0 0 0 0 0 0 0 0 0 0 0 0 0 0 0 0 0 0 0 0 0 0 0 0 0 0 0 0

GEFSNGP_con_prob3kmehi_372.txt.gz
EHI
0 0 0 0 0 0 0 0 1 2 1 2 6 12 14 15 16 16 17 17 17 19 21 21 20 19 17 15 16 17 18 18 17 19 21 20 17 15 15 14 13 12 12 12
0 0 0 0 0 0 0 0 1 2 1 2 8 13 15 16 16 16 19 20 20 23 24 22 21 21 19 17 17 18 18 18 18 18 19 18 16 15 16 15 14 13 13 13
0 0 0 0 0 0 0 1 1 1 1 3 8 12 12 13 15 19 21 21 21 23 23 21 20 21 21 20 20 21 20 19 19 18 17 17 17 16 16 15 15 14 13 12
0 0 0 0 0 0 0 1 0 0 2 6 8 9 8 9 13 18 19 16 16 17 19 18 17 18 21 21 22 24 24 22 21 20 19 18 17 17 15 13 13 14 13 12
0 0 0 0 0 0 0 0 0 1 3 6 8 7 7 8 11 12 12 11 12 13 15 17 16 17 20 21 22 24 25 24 23 22 20 19 18 16 12 10 10 12 13 13
0 0 0 0 0 0 0 0 1 4 6 7 8 8 8 9 10 9 9 10 12 13 15 17 18 19 21 21 21 23 23 22 21 21 20 19 17 13 10 9 9 11 12 12
0 0 0 1 0 0 0 0 2 7 10 10 10 10 10 10 10 10 10 12 13 15 16 18 19 22 23 22 21 21 20 18 18 18 17 15 12 11 10 10 10 10 10 9
1 1 2 2 2 1 1 1 4 10 13 12 11 9 9 8 8 10 13 14 14 15 17 17 19 21 22 21 19 18 16 13 13 14 13 10 9 9 8 8 9 9 8 7
4 5 5 4 4 4 4 5 8 13 15 13 10 8 6 7 8 10 13 14 15 15 15 15 16 18 19 18 17 15 13 11 10 11 11 9 8 7 7 7 8 8 7 6
6 7 7 6 5 5 6 9 12 15 14 11 9 6 5 8 10 11 11 12 15 16 15 15 16 16 18 18 16 13 11 9 8 9 9 9 8 8 8 8 7 7 7 6
6 8 8 7 5 5 7 10 13 14 10 8 8 7 6 7 9 8 8 10 13 15 16 16 16 16 18 17 15 12 10 8 7 7 7 7 8 8 7 6 5 5 5 5
5 6 6 5 4 5 7 9 10 10 9 7 9 10 9 8 7 6 6 7 9 11 14 15 15 15 15 14 12 11 9 7 6 6 6 6 7 6 4 2 2 2 3 3
3 3 3 3 2 2 5 6 7 8 9 9 11 12 12 11 9 7 6 6 6 6 9 10 11 11 12 12 10 8 7 7 6 6 6 6 6 5 3 1 0 0 1 1
1 1 1 1 0 1 2 3 5 7 8 8 9 11 12 11 10 8 7 7 5 5 5 5 5 7 9 9 7 5 4 5 5 5 6 6 5 4 3 2 1 0 0 0
0 0 0 0 1 2 2 2 3 4 5 4 6 8 9 8 7 7 8 8 7 5 3 3 3 4 5 5 3 2 1 2 2 3 3 3 3 3 2 2 1 0 0 0
0 1 1 1 2 3 2 1 2 1 1 1 3 5 6 5 4 5 6 6 5 3 2 2 2 1 1 1 1 0 0 0 0 1 1 1 1 1 1 1 1 0 0 0
1 1 2 2 2 2 2 1 1 0 0 0 2 4 5 4 4 4 4 4 3 3 3 2 1 0 0 0 0 0 0 0 0 0 0 0 0 0 0 0 0 0 0 0
0 1 1 1 1 1 1 1 0 0 0 0 1 4 4 4 4 5 5 4 3 3 3 1 1 0 0 0 0 0 0 0 0 0 0 0 0 0 0 0 0 0 0 0
0 0 0 0 0 0 1 1 0 0 0 0 0 2 3 4 5 6 6 5 4 3 2 1 0 0 0 0 0 0 0 0 0 0 0 0 0 0 0 0 0 0 0 0
0 0 0 0 0 1 2 2 1 0 0 0 0 1 2 3 5 6 6 4 3 2 2 1 0 0 0 0 0 0 0 0 0 0 0 0 0 0 0 0 0 0 0 0
0 0 0 0 0 1 2 2 1 0 0 0 0 1 3 4 5 5 5 3 1 1 1 0 0 0 0 0 0 0 0 0 0 0 0 0 0 0 0 0 0 0 0 0
0 0 0 0 0 0 1 1 0 0 0 0 1 2 3 4 4 3 3 1 0 0 0 0 0 0 0 0 0 0 0 0 0 0 0 0 0 0 0 0 0 0 0 0
0 0 0 0 1 1 1 1 1 1 1 1 2 2 2 3 2 1 1 0 0 0 0 0 0 0 0 0 0 0 0 0 0 0 0 0 0 0 0 0 0 0 0 0
0 0 0 1 2 2 2 3 3 2 2 2 3 3 3 2 1 0 0 0 0 0 0 0 0 0 0 0 0 0 0 0 0 0 0 0 0 0 0 0 0 0 0 0
0 0 1 2 2 2 2 3 3 2 2 2 2 2 2 1 0 0 0 0 0 0 0 0 0 0 0 0 0 0 0 0 0 0 0 0 0 0 0 0 0 0 0 0
0 0 1 1 1 0 1 1 1 1 1 1 0 1 1 0 0 0 0 0 0 0 0 0 0 0 0 0 0 0 0 0 0 0 0 0 0 0 0 0 0 0 0 0
0 0 0 1 0 0 0 0 0 0 0 0 0 0 0 0 0 0 0 0 0 0 0 1 1 1 0 0 1 1 1 0 0 0 0 0 0 0 0 0 0 0 0 0

GEFSNGP_con_prob3kmehi_378.txt.gz
EHI
0 0 0 0 0 0 1 2 4 7 9 11 13 15 17 19 22 25 26 29 34 39 43 46 46 46 40 35 33 34 34 35 35 36 36 36 34 32 31 27 25 27 30 31
0 0 0 0 0 0 0 2 5 10 12 13 14 18 20 20 22 24 25 27 32 38 42 44 45 46 43 37 37 38 36 35 36 36 34 31 30 30 31 30 29 31 31 31
0 0 0 1 1 1 1 2 7 14 18 17 18 22 23 21 22 24 23 24 29 34 38 41 41 42 42 41 42 42 39 37 37 35 31 27 26 27 29 30 31 32 31 30
0 0 0 1 2 2 3 5 10 16 19 19 20 23 23 21 24 26 26 25 27 29 31 34 35 37 41 42 42 41 40 38 36 32 29 25 24 26 27 26 27 28 27 25
1 0 1 1 1 2 3 7 12 15 16 17 19 21 21 21 25 28 29 30 29 27 27 29 32 36 41 42 40 40 39 37 35 31 28 26 26 26 25 23 23 23 21 17
2 2 2 2 2 2 4 9 14 15 15 15 19 21 20 21 25 28 30 32 32 30 29 31 33 37 41 41 39 40 40 38 35 32 30 28 27 26 23 20 19 19 16 14
3 3 3 4 4 6 12 17 19 20 20 19 20 22 22 22 25 27 29 33 36 35 34 33 33 34 36 37 37 38 39 38 36 33 30 28 27 25 21 17 15 14 13 12
7 7 8 8 8 13 21 24 24 24 25 23 22 22 23 24 26 26 27 32 37 37 35 32 31 31 31 32 34 36 37 36 34 31 28 25 24 22 19 15 12 11 10 11
14 14 13 12 13 17 22 23 23 23 23 21 20 19 20 21 23 23 25 30 33 33 32 30 29 28 27 28 32 34 34 32 29 27 24 22 20 17 16 15 12 10 10 11
17 15 14 13 13 16 18 18 18 19 18 17 17 16 16 19 21 21 23 27 29 29 28 27 27 28 26 26 29 33 32 29 26 23 21 20 19 16 15 15 13 11 10 10
17 17 16 15 13 13 13 13 14 16 15 15 17 18 20 23 24 23 24 25 24 24 24 23 24 26 26 25 28 31 30 26 22 19 18 18 17 14 12 10 9 9 8 7
20 19 18 16 13 10 10 12 13 14 16 17 19 22 24 26 25 25 24 22 20 19 19 20 21 23 25 26 28 29 27 22 16 15 15 15 13 11 8 5 4 4 4 4
19 16 13 13 11 10 10 12 13 15 18 21 22 22 23 24 23 22 20 18 16 15 15 16 18 20 22 25 25 25 22 18 14 12 12 10 9 9 7 4 2 1 2 2
14 11 8 8 9 9 10 11 13 17 20 21 20 19 18 20 21 19 16 13 12 11 11 12 14 16 18 20 20 18 17 16 13 11 8 7 6 6 6 5 3 2 2 1
10 8 6 6 7 8 8 8 11 16 18 17 16 15 15 17 18 17 14 13 11 10 10 10 11 12 14 15 13 13 13 11 9 6 4 3 3 3 4 5 4 4 3 3
8 7 6 5 4 6 6 5 6 10 11 11 11 11 13 14 15 15 14 14 12 11 11 11 11 12 13 11 10 10 9 6 3 3 2 1 1 1 2 3 4 4 4 4
8 7 5 3 1 2 3 2 3 5 6 7 8 9 11 12 12 13 14 13 12 12 12 11 12 12 11 9 8 7 6 4 2 1 1 0 0 1 2 3 3 4 5 4
6 4 2 1 0 1 2 3 5 6 6 6 6 7 9 10 11 12 12 12 12 13 11 9 9 9 8 6 6 6 5 4 3 2 1 1 0 1 3 4 4 5 5 4
3 2 1 1 2 3 5 5 5 5 6 6 6 7 9 9 10 11 11 11 12 12 9 7 7 6 5 4 4 5 4 3 3 3 3 3 2 2 4 5 5 5 4 3
4 2 1 2 3 5 5 5 4 3 4 5 7 8 9 8 8 9 9 9 10 11 9 7 6 6 5 3 3 4 3 2 2 3 4 4 4 3 2 3 4 2 1 1
6 4 3 3 4 4 4 4 3 3 3 4 6 9 9 8 7 7 7 8 9 10 8 6 5 5 3 2 2 2 2 1 1 3 4 4 4 3 1 1 1 0 0 0
8 6 4 3 3 3 3 3 3 3 3 4 6 8 9 7 6 6 6 7 8 8 6 4 3 2 1 1 1 1 1 0 1 2 3 3 4 3 1 0 0 0 0 0
11 8 4 3 3 3 3 2 2 3 3 4 6 9 8 7 5 4 4 5 6 5 4 2 1 0 1 1 1 0 0 0 1 2 3 3 3 3 2 0 0 0 0 0
12 10 6 3 2 3 3 3 3 3 3 4 7 10 8 5 4 2 2 3 3 2 2 1 0 0 1 2 1 0 0 0 1 2 2 3 3 3 1 0 0 0 0 0
12 11 7 4 3 3 3 3 3 3 3 4 7 8 6 3 1 1 2 3 2 2 2 1 0 0 1 2 1 0 0 0 0 1 1 1 3 3 1 0 0 0 0 0
10 9 6 4 3 3 2 2 3 3 3 4 5 5 4 2 1 1 3 4 4 2 2 1 0 0 0 1 1 0 0 0 0 0 0 1 2 3 2 1 0 0 0 0
8 7 5 4 3 2 1 2 3 3 3 3 3 4 4 2 2 3 4 5 5 4 2 1 0 0 0 0 0 1 1 1 0 0 0 0 1 3 3 2 1 0 0 0

GEFSNGP_con_prob3kmehi_384.txt.gz
EHI
0 0 0 0 0 1 0 0 1 2 2 4 7 11 14 14 10 9 9 10 13 17 18 16 15 15 15 16 17 14 10 8 7 6 5 6 8 7 5 3 3 3 4 4
0 0 0 0 0 1 2 3 4 5 4 5 8 13 16 16 12 8 7 8 11 14 16 15 15 16 17 18 18 16 11 8 8 6 5 7 8 7 5 3 3 3 4 4
0 0 0 0 0 2 5 7 8 8 7 7 11 16 17 15 13 10 7 7 9 11 12 13 15 17 18 19 19 16 11 8 7 6 6 6 7 6 5 3 3 3 4 5
0 0 0 0 0 2 5 8 9 10 9 10 14 18 16 14 13 11 10 10 10 10 10 12 14 16 17 18 19 17 12 10 9 8 8 7 7 6 5 4 4 4 5 5
0 0 0 0 0 1 5 6 8 11 13 15 18 20 18 16 14 12 12 13 13 12 11 12 14 16 16 17 18 17 14 14 13 12 9 7 7 8 6 5 5 6 5 4
0 0 0 0 0 2 4 5 7 12 16 18 19 19 19 19 17 14 13 15 17 16 14 13 15 16 16 17 18 17 16 17 16 14 11 9 8 8 8 7 6 5 3 2
0 0 0 0 1 2 2 4 7 11 15 16 15 14 15 18 18 14 14 16 17 17 15 15 15 16 16 17 18 18 18 17 16 15 13 11 10 8 8 7 5 2 1 1
0 0 0 1 3 2 3 4 6 9 12 13 12 11 10 12 13 12 14 16 15 14 14 13 14 14 15 17 19 19 19 18 16 14 14 14 12 9 6 5 3 1 0 0
2 2 2 3 3 3 4 5 6 7 9 10 9 7 6 5 7 9 12 13 12 11 11 10 11 12 14 17 20 21 21 19 16 15 14 15 13 9 5 3 1 0 0 0
8 7 6 4 3 3 4 4 5 6 6 6 5 4 2 2 4 5 6 7 8 9 8 8 8 9 11 15 20 23 22 19 16 15 14 13 12 8 5 3 1 1 0 0
10 9 7 5 4 4 5 5 4 4 4 4 3 3 2 2 3 2 1 2 4 6 6 6 6 6 8 12 18 21 20 18 16 13 10 10 10 8 5 3 2 1 0 0
7 7 5 4 3 4 6 7 4 3 4 4 4 4 3 3 3 1 0 1 3 4 4 5 5 5 6 8 13 15 15 15 13 10 7 7 8 6 3 2 1 1 0 0
3 4 4 3 2 3 5 6 4 2 3 5 6 5 4 3 2 1 1 2 3 3 3 4 4 4 4 5 6 8 10 11 9 7 4 4 6 5 3 1 0 0 0 0
1 2 2 1 1 1 2 3 3 2 3 5 6 6 5 3 1 2 2 3 3 3 3 3 3 3 3 3 3 5 7 7 6 4 3 3 4 4 3 1 0 0 0 0
0 1 1 0 0 1 1 2 2 2 3 4 4 4 4 3 2 3 3 3 3 3 3 3 3 3 3 4 4 6 6 5 4 3 3 3 3 4 3 2 0 0 0 0
0 0 0 0 0 1 2 2 1 1 2 2 2 1 2 2 3 3 3 3 3 3 3 3 3 3 4 5 6 6 6 3 1 1 1 3 3 3 2 1 0 0 0 0
0 0 0 0 0 0 1 2 1 0 1 1 1 0 0 1 1 2 3 3 3 3 3 3 3 3 3 4 6 6 5 2 0 0 1 2 2 1 1 1 0 0 0 0
0 0 0 0 0 0 1 2 2 1 0 0 0 0 0 0 0 1 3 3 3 3 3 3 3 3 3 4 5 5 4 2 1 0 0 1 1 0 0 0 0 0 0 0
0 0 0 0 0 0 0 1 2 1 0 0 0 0 0 0 0 1 3 4 3 3 3 3 3 3 3 4 5 5 3 2 1 0 0 0 0 0 0 0 0 0 0 0
1 1 0 0 0 0 0 1 2 2 0 0 0 0 0 0 0 1 3 3 2 3 3 3 3 3 3 3 4 4 2 1 0 0 0 0 0 0 0 0 0 0 0 0
0 0 0 0 0 0 0 1 1 1 0 0 0 0 0 0 0 1 1 1 1 1 2 3 3 3 3 3 3 2 1 0 0 0 0 0 0 0 0 0 0 0 0 0
0 0 0 0 0 0 0 0 0 0 0 0 1 1 0 0 0 0 0 0 0 0 1 1 2 3 2 2 2 1 0 0 0 0 0 0 0 0 0 0 0 0 0 0
0 0 0 0 0 0 0 0 0 0 0 1 2 2 1 1 1 1 0 0 0 0 0 1 1 1 1 1 1 0 0 0 0 0 0 0 0 0 0 0 0 0 0 0
0 0 0 0 0 0 0 0 0 0 1 1 3 3 3 2 2 2 1 1 0 0 0 0 0 0 0 0 0 0 0 0 0 0 0 0 0 0 0 0 0 0 0 0
0 0 0 0 0 0 0 0 1 1 2 3 3 3 3 3 3 3 3 2 1 0 0 0 0 0 0 0 0 0 0 0 0 0 0 0 0 0 0 0 0 0 0 0
0 0 0 0 0 0 0 0 1 2 3 3 3 3 3 3 3 3 3 3 1 0 0 0 0 0 0 0 0 0 0 0 0 0 0 0 0 0 0 0 0 0 0 0
0 0 0 0 0 0 0 0 1 3 3 3 3 3 3 3 3 3 3 3 2 1 0 0 0 0 0 0 0 0 0 0 0 0 0 0 0 0 0 0 0 0 0 0